Memphis International Airport Memphis US
ICAO: KMEM
IATA: MEM
Category: Large
Scheduled Services: Yes

Elevation: 341 ft
TransAlt. 18000 ft.

Airport Communications:
APP:33.83
APP:119.1
ATIS:127.75
CLNC DEL:125.2
DEP:124.15
GND:121.65
ANG COMD POST:138.95
JACKSON RDO:122.2
TWR:118.3
UNICOM:122.95

KMEM Zoom In..

If you have problems with the map follow the link
https://www.worldairports.se/pages/airport.php?
ICAO=KMEM

Runways:

(A) RW 09 length 8946 ft width 150 ft
ILS 109.50 / hdg 91

(B) RW 18C length 11120 ft width 150 ft
ILS 111.95 / hdg 178

(C) RW 18L length 9000 ft width 150 ft
ILS 111.15 / hdg 178

(D) RW 18R length 9320 ft width 150 ft
ILS 109.90 / hdg 178

(E) RW 27 length 8946 ft width 150 ft
ILS 108.70 / hdg 271

(F) RW 36C length 11120 ft width 150 ft
ILS 110.50 / hdg 358

(G) RW 36L length 9320 ft width 150 ft
ILS 108.90 / hdg 358

(H) RW 36R length 9000 ft width 150 ft
ILS 111.35 / hdg 358

Location; KMEM
Day. 19 / Time. 00.54 Zulu
* Altimeter: 30.36
* Temperature: 14° c. 57.2°f.
* Wind from: 040° Speed 06 kn.
Dewpoint: 05° c.
Visibility: 10 Statute Miles.
Clouds: Few 14000 ft.
Clouds: Scattered 25000 ft.

KMEM 190054Z 04006KT 10SM FEW140 SCT250 14/05 A3036 RMK AO2 SLP279 T01440050


Wind From 040°
Speed 06 kn.

 
 
jpsmedia.com for Web Design worldairports.se 2018   terms of use